Weather History for West Palm Beach, FL

Change the Weather History Date:

Monday, July 7, 2014

  Actual Average Record
Temperature  
Mean Temperature 82 °F 82 °F  
Max Temperature 87 °F 90 °F 97 °F (1980)
Min Temperature 76 °F 75 °F 67 °F (1922)
Degree Days  
Heating Degree Days 0 0  
Month to date heating degree days 0 0  
Since 1 June heating degree days 0 0  
Since 1 July heating degree days 0 0  
Cooling Degree Days 17 17  
Month to date cooling degree days 127 119  
Year to date cooling degree days 1967 1718  
Since 1 June cooling degree days 615 609  
Growing Degree Days 31 (Base 50)    
Moisture  
Dew Point 74 °F    
Average Humidity 77    
Maximum Humidity 91    
Minimum Humidity 63    
Precipitation  
Precipitation 0.36 in 0.21 in 2.25 in (1948)
Month to date precipitation 2.36 1.51  
Year to date precipitation 28.06 28.52  
Snow  
Snow 0.00 in - - ()
Month to date snowfall 0.0  
Since 1 June snowfall 0.0  
Since 1 July snowfall 0.0  
Snow Depth 0.00 in    
Sea Level Pressure  
Sea Level Pressure 30.08 in    
Wind  
Wind Speed 6 mph (SE)    
Max Wind Speed 21 mph    
Max Gust Speed 26 mph    
Visibility 9 miles    
Events Rain , Thunderstorm    
T = Trace of Precipitation, MM = Missing Value Source: NWS Daily Summary

Daily Weather History Graph

Daily Weather History Graph

Search for Another Location

Airport:

Trip Planner

Search our weather history database for the weather conditions in past years. The results will help you decide how hot, cold, wet, or windy it might be!

Date:

Astronomy

Jul. 07, 2014 Rise Set
Actual Time 6:32 AM EDT 8:17 PM EDT
Civil Twilight 6:06 AM EDT 8:43 PM EDT
Nautical Twilight 5:35 AM EDT 9:14 PM EDT
Astronomical Twilight 5:02 AM EDT 9:47 PM EDT
Moon 3:32 PM EDT (7/7) 2:08 AM EDT (7/7)
Length of Visible Light 14h 36m
Length of Day
13h 44m
Waxing Gibbous, 72% of the Moon is Illuminated
Jul 7
Waxing Gibbous
Jul 12
Full
Jul 18
Last Quarter
Jul 26
New
Aug 3
First Quarter

Hourly Weather History & Observations

Time (EDT) Temp. Heat Index Dew Point Humidity Pressure Visibility Wind Dir Wind Speed Gust Speed Precip Events Conditions
12:53 AM 79.0 °F - 75.9 °F 90% 30.05 in 10.0 mi SE 5.8 mph - N/A   Mostly Cloudy
1:53 AM 80.1 °F 85.1 °F 75.0 °F 85% 30.04 in 10.0 mi SE 6.9 mph - N/A   Mostly Cloudy
2:53 AM 80.1 °F 85.4 °F 75.9 °F 87% 30.02 in 10.0 mi SE 8.1 mph - N/A   Scattered Clouds
3:53 AM 80.1 °F 85.1 °F 75.0 °F 85% 30.02 in 10.0 mi SE 9.2 mph - N/A   Scattered Clouds
4:53 AM 80.1 °F 85.1 °F 75.0 °F 85% 30.03 in 10.0 mi SSE 5.8 mph - N/A   Scattered Clouds
5:53 AM 80.1 °F 84.2 °F 73.0 °F 79% 30.04 in 10.0 mi SE 4.6 mph - N/A   Scattered Clouds
6:40 AM 78.1 °F - 71.1 °F 79% 30.06 in 4.0 mi ESE 6.9 mph 20.7 mph 0.17 in Rain Heavy Rain
6:50 AM 77.0 °F - 73.4 °F 89% 30.06 in 8.0 mi ESE 19.6 mph 25.3 mph 0.18 in Rain , Thunderstorm Light Thunderstorms and Rain
6:53 AM 77.0 °F - 73.0 °F 88% 30.06 in 8.0 mi SE 17.3 mph 25.3 mph 0.18 in Rain , Thunderstorm Light Thunderstorms and Rain
6:59 AM 75.9 °F - 72.0 °F 87% 30.07 in 0.8 mi ESE 11.5 mph - 0.02 in Rain , Thunderstorm Heavy Thunderstorms and Rain
7:07 AM 75.9 °F - 73.0 °F 91% 30.07 in 3.0 mi East 9.2 mph - 0.09 in Rain , Thunderstorm Heavy Thunderstorms and Rain
7:32 AM 77.0 °F - 73.0 °F 88% 30.07 in 10.0 mi SSE 6.9 mph - 0.16 in   Mostly Cloudy
7:53 AM 78.1 °F - 73.0 °F 84% 30.08 in 10.0 mi South 3.5 mph - 0.16 in   Mostly Cloudy
8:53 AM 79.0 °F - 73.9 °F 84% 30.10 in 7.0 mi Calm Calm - 0.01 in Rain Light Rain
8:59 AM 79.0 °F - 73.0 °F 82% 30.11 in 7.0 mi Variable 3.5 mph - 0.01 in Rain , Thunderstorm Light Thunderstorms and Rain
9:37 AM 80.1 °F 84.5 °F 73.9 °F 81% 30.12 in 10.0 mi Calm Calm - 0.01 in Thunderstorm Thunderstorm
9:53 AM 81.0 °F 86.2 °F 73.9 °F 79% 30.12 in 10.0 mi SW 8.1 mph - 0.01 in Thunderstorm Thunderstorm
10:43 AM 81.0 °F 85.2 °F 72.0 °F 74% 30.12 in 10.0 mi Calm Calm - 0.00 in Rain Light Rain
10:53 AM 82.0 °F 86.7 °F 72.0 °F 71% 30.12 in 10.0 mi Calm Calm - 0.00 in   Mostly Cloudy
11:53 AM 86.0 °F 95.1 °F 75.0 °F 70% 30.12 in 10.0 mi SSE 4.6 mph - N/A   Mostly Cloudy
12:53 PM 87.1 °F 95.4 °F 73.9 °F 65% 30.10 in 10.0 mi Variable 5.8 mph - N/A   Mostly Cloudy
1:53 PM 86.0 °F 93.8 °F 73.9 °F 67% 30.10 in 10.0 mi ESE 8.1 mph - N/A   Mostly Cloudy
2:21 PM 84.9 °F 92.1 °F 73.9 °F 69% 30.09 in 10.0 mi ESE 8.1 mph - N/A Thunderstorm Thunderstorm
2:43 PM 84.9 °F 92.1 °F 73.9 °F 69% 30.09 in 10.0 mi SE 9.2 mph - N/A   Mostly Cloudy
2:53 PM 84.9 °F 93.3 °F 75.0 °F 72% 30.10 in 10.0 mi ESE 9.2 mph - N/A   Mostly Cloudy
3:42 PM 82.0 °F 87.9 °F 73.9 °F 76% 30.09 in 10.0 mi WSW 4.6 mph - N/A Thunderstorm Thunderstorm
3:53 PM 84.0 °F 91.2 °F 73.9 °F 72% 30.09 in 10.0 mi West 5.8 mph - N/A Thunderstorm Thunderstorm
4:34 PM 84.9 °F 93.3 °F 75.0 °F 72% 30.08 in 10.0 mi NW 4.6 mph - N/A   Mostly Cloudy
4:53 PM 84.9 °F 93.3 °F 75.0 °F 72% 30.08 in 10.0 mi Calm Calm - N/A   Mostly Cloudy
5:53 PM 84.9 °F 92.1 °F 73.9 °F 69% 30.07 in 10.0 mi East 8.1 mph - N/A   Mostly Cloudy
6:53 PM 84.0 °F 91.9 °F 75.0 °F 74% 30.06 in 10.0 mi ESE 8.1 mph - N/A   Mostly Cloudy
7:53 PM 84.0 °F 91.9 °F 75.0 °F 74% 30.07 in 10.0 mi ESE 11.5 mph - N/A   Mostly Cloudy
8:53 PM 82.9 °F 90.2 °F 75.0 °F 77% 30.07 in 10.0 mi ESE 8.1 mph - N/A   Mostly Cloudy
9:53 PM 82.0 °F 89.4 °F 75.9 °F 82% 30.10 in 10.0 mi SE 3.5 mph - N/A   Mostly Cloudy
10:53 PM 82.0 °F 88.6 °F 75.0 °F 79% 30.11 in 10.0 mi SE 3.5 mph - N/A   Mostly Cloudy
11:53 PM 82.0 °F 88.6 °F 75.0 °F 79% 30.11 in 10.0 mi ESE 5.8 mph - N/A   Mostly Cloudy